Regional Weather Roundup
Issued by NWS

Home | Current Version | Previous Version | Text Only | Print | Product List | Glossary Off
Versions: 1 2 3 4 5 6 7 8 9 10 11 12 13 14 15 16 17 18 19 20 21 22 23 24 25 26 27 28 29 30 31 32 33 34 35 36 37 38 39 40 41 42 43 44 45 46 47 48 49 50

000
ASUS43 KFSD 280202
RWRSD

WEATHER ROUNDUP FOR SOUTH DAKOTA
NATIONAL WEATHER SERVICE SIOUX FALLS SD
800 PM CST TUE JAN 27 2015

NOTE: "FAIR" INDICATES FEW OR NO CLOUDS BELOW 12,000 FEET WITH NO
SIGNIFICANT WEATHER AND/OR OBSTRUCTIONS TO VISIBILITY.


SDZ001>005-009-010-012>017-280300-
NORTHWEST AND NORTH CENTRAL SOUTH DAKOTA

CITY           SKY/WX    TMP DP  RH WIND       PRES   REMARKS
BUFFALO          N/A     52  31  44 W3        29.76F
FAITH            N/A     53  28  38 SE8       29.82S
MOBRIDGE       CLEAR     40  32  73 SE9       29.80F
$$

SDZ012>016-024>037-041>051-057-063-072>074-280300-
SOUTHWEST AND SOUTH CENTRAL SOUTH DAKOTA

CITY           SKY/WX    TMP DP  RH WIND       PRES   REMARKS
RAPID CTY ARPT CLOUDY    47  29  49 NW5       29.84S
PIERRE         CLEAR     42  34  73 SE7       29.84S
CUSTER         CLOUDY    52  22  30 W12G22    29.94F
ELLSWORTH AFB  CLEAR     47  31  52 W7        29.83F
PHILIP         CLEAR     45  28  51 E8        29.81F
PINE RIDGE     CLOUDY    39  29  67 CALM      29.90S
WINNER         FAIR      47  36  65 SE13      29.85F
$$

SDZ004>011-016>023-039-040-280300-
NORTHEAST SOUTH DAKOTA

CITY           SKY/WX    TMP DP  RH WIND       PRES   REMARKS
ABERDEEN       CLEAR     34  31  88 S12       29.90S WCI  25
WATERTOWN      MOCLDY    34  32  92 S13       29.92S WCI  25
SISSETON         N/A     32  32 100 S14       29.94F WCI  22
$$

SDZ017-020-022-023-036>040-048>070-280300-
SOUTHEAST SOUTH DAKOTA

CITY           SKY/WX    TMP DP  RH WIND       PRES   REMARKS
SIOUX FALLS    CLEAR     36  33  89 SE8       29.98S
HURON          CLEAR     35  33  92 SE9       29.91R WCI  28
MITCHELL       CLEAR     36  34  92 SE10      29.93S
YANKTON        CLEAR     37  32  81 SE9       29.98S
$$

ABBREVIATIONS USED IN REMARKS
   TC - TEMPERATURE IN CELSIUS
  WCI - WIND CHILL INDEX
   HX - HEAT INDEX
  VSB - VISIBILITY



USA.gov is the U.S. government's official web portal to all federal, state and local government web resources and services.